カタログに戻る

PRISMA

TANGO

運用中科学SSO
NORAD 36827·PAYLOAD·🇸🇪 Sweden

打ち上げ Jun 15, 2010 から Dombarovsky

Loading…

次のパス (今後24時間)

TLE

最新Source: Space-Track

元期: Sep 13, 2026, 23:41 UTC

1 36827U 10028F   26256.98704894  .00000194  00000-0  67973-4 0  9997
2 36827  98.4227 107.1553 0040488 324.8762  34.9761 14.44868974715714

AllMySatでPRISMAをリアルタイム追跡

Download on the App Store